Rodez, France

5:01 PM CEST on September 30, 2016 (GMT +0200)
Marcillac

Weather History for LFCR - January, 2013

Change the Weather History Date:

Thursday, January 17, 2013

  Actual Average Record
Temperature  
Mean Temperature 14 °F -  
Max Temperature 24 °F - - ()
Min Temperature 5 °F - - ()
Degree Days  
Heating Degree Days 50    
Moisture  
Dew Point 12 °F    
Average Humidity 84    
Maximum Humidity 93    
Minimum Humidity 68    
Precipitation  
Precipitation 0.00 in - - ()
Sea Level Pressure  
Sea Level Pressure 29.84 in    
Wind  
Wind Speed 4 mph ()    
Max Wind Speed 10 mph    
Max Gust Speed -    
Visibility 3.9 miles    
Events Fog    
T = Trace of Precipitation, MM = Missing Value Source: Averaged Metar Reports

Daily Weather History Graph

Daily Weather History Graph

Search for Another Location

Airport or City:

Trip Planner

Search our weather history database for the weather conditions in past years. The results will help you decide how hot, cold, wet, or windy it might be!

Date:

Astronomy

Jan. 17, 2013 Rise Set
Actual Time 8:21 AM CET 5:39 PM CET
Civil Twilight 7:49 AM CET 6:11 PM CET
Nautical Twilight 7:13 AM CET 6:47 PM CET
Astronomical Twilight 6:38 AM CET 7:21 PM CET
Moon 11:04 AM CET (1/17) No Moon Set
Length of Visible Light 10h 21m
Length of Day
9h 17m
Waxing Crescent, 35% of the Moon is Illuminated
Jan 17
Waxing Crescent
Jan 19
First Quarter
Jan 27
Full
Feb 3
Last Quarter
Feb 10
New

Hourly Weather History & Observations

Time (CET) Temp. Windchill Dew Point Humidity Pressure Visibility Wind Dir Wind Speed Gust Speed Precip Events Conditions
12:00 AM 24.8 °F 16.9 °F 15.8 °F 69% 29.71 in 6.2 mi North 6.9 mph - N/A   Unknown
12:30 AM 24.8 °F 14.6 °F 15.8 °F 69% 29.71 in 6.2 mi North 10.4 mph - N/A   Unknown
1:00 AM 23.0 °F 13.9 °F 14.0 °F 68% 29.71 in 6.2 mi NNE 8.1 mph - N/A   Unknown
1:30 AM 23.0 °F 15.8 °F 14.0 °F 68% 29.71 in 6.2 mi North 5.8 mph - N/A   Unknown
2:00 AM 21.2 °F 13.6 °F 14.0 °F 74% 29.74 in 6.2 mi North 5.8 mph - N/A   Unknown
2:30 AM 21.2 °F 14.9 °F 14.0 °F 74% 29.74 in 6.2 mi North 4.6 mph - N/A   Unknown
3:00 AM 21.2 °F - 12.2 °F 68% 29.77 in 6.2 mi North 2.3 mph - N/A   Unknown
3:30 AM 19.4 °F 14.3 °F 14.0 °F 80% 29.77 in 6.2 mi North 3.5 mph - N/A   Unknown
4:00 AM 17.6 °F 12.3 °F 14.0 °F 86% 29.77 in 6.2 mi NNW 3.5 mph - N/A   Unknown
4:30 AM 14.0 °F - 10.4 °F 86% 29.77 in 6.2 mi NW 1.2 mph - N/A   Unknown
5:00 AM 14.0 °F - 10.4 °F 86% 29.80 in 6.2 mi NNE 1.2 mph - N/A   Unknown
5:30 AM 10.4 °F - 5.0 °F 79% 29.80 in - Calm Calm - N/A   Mist
6:00 AM 10.4 °F 4.0 °F 8.6 °F 92% 29.80 in 0.2 mi Variable 3.5 mph - N/A Fog Light Freezing Fog
6:30 AM 8.6 °F - 6.8 °F 92% 29.83 in 0.2 mi NW 2.3 mph - N/A Fog Light Freezing Fog
7:00 AM 10.4 °F - 8.6 °F 92% 29.83 in 4.3 mi NW 2.3 mph - N/A   Unknown
7:30 AM 8.6 °F 2.0 °F 5.0 °F 85% 29.83 in - WNW 3.5 mph - N/A   Unknown
8:00 AM 5.0 °F -2.1 °F 1.4 °F 85% 29.86 in 5.0 mi West 3.5 mph - N/A   Unknown
8:30 AM 5.0 °F - 1.4 °F 85% 29.86 in - SW 2.3 mph - N/A   Mist
9:00 AM 6.8 °F - 5.0 °F 92% 29.86 in - WSW 2.3 mph - N/A   Mist
9:30 AM 8.6 °F 2.0 °F 6.8 °F 92% 29.89 in - West 3.5 mph - N/A   Mist
10:00 AM 12.2 °F - 10.4 °F 92% 29.89 in - WSW 2.3 mph - N/A   Mist
10:30 AM 15.8 °F 10.2 °F 12.2 °F 86% 29.89 in 1.4 mi West 3.5 mph - N/A   Mist
11:00 AM 15.8 °F - 14.0 °F 93% 29.89 in - WNW 2.3 mph - N/A   Mist
11:30 AM 17.6 °F 12.3 °F 14.0 °F 86% 29.92 in 5.6 mi WNW 3.5 mph - N/A   Unknown
12:00 PM 19.4 °F 11.5 °F 14.0 °F 80% 29.89 in 6.2 mi NW 5.8 mph - N/A   Unknown
12:30 PM 19.4 °F 14.3 °F 14.0 °F 80% 29.89 in 6.2 mi WNW 3.5 mph - N/A   Unknown
1:00 PM 21.2 °F 14.9 °F 15.8 °F 80% 29.89 in 6.2 mi WNW 4.6 mph - N/A   Unknown
1:30 PM 21.2 °F 12.6 °F 15.8 °F 80% 29.89 in 6.2 mi NW 6.9 mph - N/A   Unknown
2:00 PM 21.2 °F 13.6 °F 15.8 °F 80% 29.89 in 6.2 mi WNW 5.8 mph - N/A   Partly Cloudy
2:30 PM 21.2 °F 13.6 °F 15.8 °F 80% 29.86 in 6.2 mi WNW 5.8 mph - N/A   Unknown
3:00 PM 21.2 °F 12.6 °F 15.8 °F 80% 29.86 in 6.2 mi NW 6.9 mph - N/A   Unknown
3:30 PM 21.2 °F 11.7 °F 15.8 °F 80% 29.89 in 6.2 mi West 8.1 mph - N/A   Unknown
4:00 PM 21.2 °F 10.9 °F 15.8 °F 80% 29.89 in 5.6 mi West 9.2 mph - N/A   Unknown
4:30 PM 21.2 °F 12.6 °F 15.8 °F 80% 29.89 in 4.3 mi West 6.9 mph - N/A   Unknown
5:00 PM 19.4 °F 11.5 °F 15.8 °F 86% 29.89 in 3.7 mi West 5.8 mph - N/A   Partly Cloudy
5:30 PM 17.6 °F 12.3 °F 15.8 °F 93% 29.89 in - Variable 3.5 mph - N/A   Scattered Clouds
6:00 PM 17.6 °F - 15.8 °F 93% 29.89 in - West 2.3 mph - N/A   Overcast
6:30 PM 17.6 °F 12.3 °F 15.8 °F 93% 29.89 in - West 3.5 mph - N/A   Overcast
7:00 PM 17.6 °F 9.3 °F 15.8 °F 93% 29.89 in 1.1 mi West 5.8 mph - N/A   Mostly Cloudy
7:30 PM 15.8 °F 8.6 °F 14.0 °F 93% 29.89 in 0.2 mi West 4.6 mph - N/A Fog Light Freezing Fog
8:00 PM 14.0 °F 8.2 °F 10.4 °F 86% 29.89 in 0.1 mi West 3.5 mph - N/A Fog Light Freezing Fog
8:30 PM 12.2 °F 6.1 °F 8.6 °F 85% 29.89 in 0.0 mi West 3.5 mph - N/A Fog Light Freezing Fog
9:00 PM 8.6 °F - 5.0 °F 85% 29.89 in 0.0 mi Variable 2.3 mph - N/A Fog Light Freezing Fog
9:30 PM 14.0 °F 8.2 °F 12.2 °F 93% 29.89 in 0.1 mi NW 3.5 mph - N/A Fog Light Freezing Fog
10:00 PM 15.8 °F - 14.0 °F 93% 29.89 in 0.1 mi Variable 2.3 mph - N/A   Unknown
10:30 PM 5.0 °F - 1.4 °F 85% 29.86 in 0.0 mi NW 2.3 mph - N/A   Unknown
11:00 PM 8.6 °F 2.0 °F 6.8 °F 92% 29.86 in 0.0 mi West 3.5 mph - N/A   Unknown
11:30 PM 6.8 °F - 3.2 °F 85% 29.86 in 0.0 mi Calm Calm - N/A   Unknown